Regional Weather Roundup
Issued by NWS

Home | Current Version | Previous Version | Graphics & Text | Print | Product List | Glossary On
Versions: 1 2 3 4 5 6 7 8 9 10 11 12 13 14 15 16 17 18 19 20 21 22 23 24 25 26 27 28 29 30 31 32 33 34 35 36 37 38 39 40 41 42 43 44 45 46 47 48 49 50
000
ASUS43 KMPX 240610
RWRMN
WEATHER ROUNDUP FOR MINNESOTA
NATIONAL WEATHER SERVICE TWIN CITIES/CHANHASSEN MN
100 AM CDT FRI OCT 24 2014


NOTE: "FAIR" INDICATES FEW OR NO CLOUDS BELOW 12,000 FEET WITH NO
SIGNIFICANT WEATHER AND/OR OBSTRUCTIONS TO VISIBILITY. N/A MEANS
CURRENT SKY AND/OR WEATHER CONDITIONS ARE NOT AVAILABLE.

MNZ060>063-068>070-240700-
   Twin Cities Metro

CITY           SKY/WX    TMP DP  RH WIND       PRES   REMARKS
TWIN CITIES    PTCLDY    48  46  93 SE7       29.97S
6HR MIN TEMP:  48; 6HR MAX TEMP:  59;

ST PAUL        CLEAR     46  46 100 S5        29.99R FOG
CRYSTAL        CLEAR     49  47  93 S3        29.95S FOG
BLAINE         CLEAR     48  48 100 SE6       29.96S FOG
LAKEVILLE      CLEAR     46  46 100 CALM      29.97S
EDEN PRAIRIE   CLEAR     50  45  83 S7        29.96S
6HR MIN TEMP:  49; 6HR MAX TEMP:  63;

SOUTH ST PAUL  CLEAR     48  47  95 CALM      29.98R FOG
LAKE ELMO      FAIR      46  45  93 S3        29.99S FOG
$$
MNZ001>005-007-008-013>017-022>024-027-028-240700-
   Northwest Minnesota

CITY           SKY/WX    TMP DP  RH WIND       PRES   REMARKS
BEMIDJI        CLOUDY    54  40  59 SW7       29.83F
HALLOCK        MOCLDY    48  39  71 S7        29.72S
ROSEAU         CLOUDY    52  43  71 S9        29.74F
WARROAD        CLOUDY    52  43  71 S6        29.75F
THIEF RVR FALL CLOUDY    52  41  66 S8        29.78F
CROOKSTON      MOCLDY    50  43  76 S10       29.78F
FOSSTON        CLOUDY    52  39  62 S12       29.81F
DETROIT LAKES  MOCLDY    55  45  67 S9        29.85S
MOORHEAD       MOCLDY    48  45  87 S10       29.82F
PARK RAPIDS    CLOUDY    51  41  68 S7        29.86F
MAHNOMEN       FAIR      53  42  68 S12       29.81F
$$
MNZ006-009>011-018-025>026-240700-
   North Central Minnesota

CITY           SKY/WX    TMP DP  RH WIND       PRES   REMARKS
BAUDETTE       CLOUDY    51  39  63 S6        29.76F
FLAG ISLAND    CLOUDY    50  45  81 S8        29.73F
INTL FALLS     MOCLDY    49  39  68 S3        29.80F
6HR MIN TEMP:  41; 6HR MAX TEMP:  52;

WASKISH        MOCLDY    54  39  58 CALM      29.80F
BIG FORK       MOCLDY    46  39  76 S6        29.85F
LONGVILLE      CLOUDY    54  39  58 S5        29.86F
GRAND RAPIDS   MOCLDY    48  43  81 S8        29.88S
CRANE LAKE     CLEAR     46  45  93 S3        29.87S
ORR            PTCLDY    46  43  87 S7        29.83F
COOK           PTCLDY    50  45  81 S5        29.87S
WALKER         FAIR      53  40  61 SW9       29.85S
$$
MNZ012-019>021-037-240700-
   Northeast Minnesota

CITY           SKY/WX    TMP DP  RH WIND       PRES   REMARKS
DULUTH         PTCLDY    47  45  93 S6        29.92S FOG
6HR MIN TEMP:  47; 6HR MAX TEMP:  51;

ELY            PTCLDY    46  45  93 CALM      29.89S FOG
HIBBING        FOG       36  34  92 NW3       29.89F VSB 1/4
EVELETH        FOG       34  32  93 CALM      29.91S VSB 1/4
DULUTH HARBOR  PTCLDY    46  46 100 CALM      29.94S FOG
TWO HARBORS    HAZE      43  32  65 CALM      29.91S VSB 1/4
SILVER BAY     FOG       43  41  93 CALM      29.91F VSB 1/4
GRAND MARAIS     N/A     48  46  93 CALM      29.93F
G MARAIS ARPRT FOG       46  45  93 S5        29.93S VSB 1/4
$$
MNZ029>031-032-039>041-046>048-054>057-064-240700-
   West Central Minnesota

CITY           SKY/WX    TMP DP  RH WIND       PRES   REMARKS
FERGUS FALLS   CLEAR     48  39  71 S9        29.86F
WHEATON        CLEAR     48  43  81 S10       29.86F
MORRIS         PTCLDY    46  43  87 SE7       29.86S
ALEXANDRIA     MOCLDY    55  43  63 S12       29.89F
ELBOW LAKE     FAIR      49  42  78 SE7       29.86F
WADENA         CLOUDY    48  41  76 S5        29.87F
GLENWOOD       MOCLDY    48  43  81 S8        29.89F
APPLETON       MOCLDY    52  45  76 S7        29.86F
BENSON         MOCLDY    50  45  81 S10       29.87F
ORTONVILLE     PTCLDY    46  41  81 SE7       29.86S
MADISON        MOCLDY    48  43  81 S5        29.87F
WILLMAR        FAIR      48  41  76 SE5       29.92F
$$
MNZ033>034-036-042>043-049>051-058-059-240700-
   Central Minnesota

CITY           SKY/WX    TMP DP  RH WIND       PRES   REMARKS
ST CLOUD       MOCLDY    45  39  79 SE5       29.93S
6HR MIN TEMP:  43; 6HR MAX TEMP:  59;

SAUK CENTRE    FAIR      51  42  72 S8        29.90F
PAYNESVILLE    MOCLDY    49  40  69 SE6       29.92F
AITKIN         MOCLDY    54  45  71 S5        29.89R
PINE RIVER     CLOUDY    52  41  66 S3        29.91F
BRAINERD       CLOUDY    50  38  63 S7        29.90S
STAPLES        MOCLDY    48  39  71 S6        29.88F
LONG PRAIRIE   FAIR      50  41  71 S8        29.90F
LITTLE FALLS   MOCLDY    46  36  66 SE5       29.90F
LITCHFIELD     MOCLDY    48  43  81 CALM      29.94S
BUFFALO        PTCLDY    46  40  77 CALM      29.96R
MAPLE LAKE     PTCLDY    49  42  76 S5        29.95S
$$
MNZ037-044-045-052-053-240700-
   East Central Minnesota

CITY           SKY/WX    TMP DP  RH WIND       PRES   REMARKS
PRINCETON      PTCLDY    48  46  93 SE3       29.95R
MORA             N/A     45  45 100 CALM      29.96R FOG
CAMBRIDGE      PTCLDY    50  43  76 S6        29.94R HAZE
RUSH CITY      CLOUDY    47  46  96 S3        29.96R
MOOSE LAKE     CLOUDY    48  46  93 S7        29.92R FOG
HINCKLEY       CLOUDY    48  48 100 S5        29.96R FOG
CLOQUET        CLOUDY    48  46  93 S6        29.92S FOG
MCGREGOR       PTCLDY    48  45  87 S5        29.91R
$$
MNZ071>073-080-081-089-090-097-098-240700-
   Southwest Minnesota

CITY           SKY/WX    TMP DP  RH WIND       PRES   REMARKS
MONTEVIDEO     CLOUDY    52  45  76 S6        29.89F
GRANITE FALLS  CLOUDY    49  43  81 SE8       29.91F
CANBY          PTCLDY    56  47  70 S13       29.88F
MARSHALL       MOCLDY    54  43  66 SW16      29.88F
REDWOOD FALLS  MOCLDY    49  42  77 S7        29.93R
OLIVIA         MOCLDY    50  43  76 SE6       29.92F
PIPESTONE      PTCLDY    54  46  76 S8        29.92F
WINDOM         MOCLDY    50  43  76 S6        29.96R
WORTHINGTON    PTCLDY    52  43  71 S10       29.96S
JACKSON        MOCLDY    50  41  71 S7        29.97R
TRACY          MOCLDY    57  46  66 SW16      29.92F
SLAYTON        PTCLDY    50  44  79 S9        29.94F
$$
MNZ065>067-074>077-082>085-091>093-240700-
   South Central Minnesota

CITY           SKY/WX    TMP DP  RH WIND       PRES   REMARKS
MANKATO        PTCLDY    46  37  71 SE9       29.97R
NEW ULM        PTCLDY    50  43  76 S7        29.96R
ST JAMES       PTCLDY    48  43  81 S6        29.97R
FAIRMONT       PTCLDY    46  37  71 S7        29.97S
GLENCOE        PTCLDY    49  41  74 CALM      29.95S
FARIBAULT      CLEAR     46  46 100 S3        29.99R FOG
OWATONNA       CLEAR     48  46  93 SE8       29.99S
WASECA         CLEAR     41  37  87 SE5       30.00R
ALBERT LEA     CLEAR     46  46 100 SE3       30.00S FOG
$$
MNZ078>079-086>088-094>096-240700-
   Southeast Minnesota

CITY           SKY/WX    TMP DP  RH WIND       PRES   REMARKS
ROCHESTER      FOG       46  45  96 S9        30.01S VSB 1/4
6HR MIN TEMP:  46; 6HR MAX TEMP:  50;

RED WING       CLOUDY    48  48 100 SE5       29.99S FOG
STANTON        CLEAR     50  47  90 S5        29.97S
DODGE CENTER   MOCLDY    46  46 100 SW3       30.00S FOG
WINONA         CLOUDY    52  50  93 S3        30.03R FOG
AUSTIN         DRZL/FOG  46  46 100 S6        30.01S VSB 1/4
PRESTON        FOG       48  47  97 S9        30.02S VSB 1/4
$$
ABBREVIATIONS USED IN REMARKS
   TC - TEMPERATURES IN CELSIUS
  WCI - WIND CHILL INDEX
   HX - HEAT INDEX
  VSB - VISIBILITY
$$



USA.gov is the U.S. government's official web portal to all federal, state and local government web resources and services.